Find Starlink 34471

NORAD ID: 64739 Int'l Des: 2025-144 Owner: SPXS Country: US Constellation: starlink operational
LEOCIRCULAR

实时位置

正在加载3D地球...

关于 Starlink 34471

正在加载描述...

即将过境

Passes for default location (London). Set your location on the main map for personalized predictions.

高度历史

Loading altitude history...

两行轨道根数

1 64739U 25144R 26105.94212404 .00008929 00000-0 31324-3 0 9999
2 64739 53.1600 8.1267 0001017 86.0721 274.0396 15.30199341 45357
Epoch: Apr 15, 2026 • Age: 7 hours

当前状态

高度 475.5 km
速度 7.63 km/s
星下点 20.63°N, 117.15°W
发射日期 Jul 2, 2025
运行时间 0.7 years
类型 internet

技术详情

分类 Payload
质量 575.00 kg
干质量 530.00 kg
总质量 575.00 kg
长度 0.30 m
直径 4.10 m
跨度 29.00 m
形状 Box + pan
制造商 SPXS
平台类型 Starlink V2MO
阶段状态 In Orbit
所有者/国家 SPXS/US

Most Searched